Weather History for Mount Pleasant, MI

Change the Weather History Date:

Friday, August 23, 2013

  Actual Average (KAMN) Record (KAMN)
Temperature  
Mean Temperature 64 °F -  
Max Temperature 79 °F 79 °F 94 °F (1954)
Min Temperature 48 °F 54 °F 43 °F (1951)
Degree Days  
Heating Degree Days 2    
Growing Degree Days 14 (Base 50)    
Moisture  
Dew Point 50 °F    
Average Humidity 64    
Maximum Humidity 94    
Minimum Humidity 31    
Precipitation  
Precipitation 0.00 in - - ()
Sea Level Pressure  
Sea Level Pressure 30.17 in    
Wind  
Wind Speed 2 mph (NE)    
Max Wind Speed 9 mph    
Max Gust Speed 9 mph    
Visibility 10 miles    
Events      
Averages and records for this station are not official NWS values.
T = Trace of Precipitation, MM = Missing Value Source: NWS Daily Summary

Daily Weather History Graph

Daily Weather History Graph

Search for Another Location

Airport:

Trip Planner

Search our weather history database for the weather conditions in past years. The results will help you decide how hot, cold, wet, or windy it might be!

Date:

Astronomy

Aug. 23, 2013 Rise Set
Actual Time 6:52 AM EDT 8:29 PM EDT
Civil Twilight 6:22 AM EDT 8:59 PM EDT
Nautical Twilight 5:45 AM EDT 9:36 PM EDT
Astronomical Twilight 5:06 AM EDT 10:15 PM EDT
Moon 9:39 PM EDT (8/23) 9:54 AM EDT (8/23)
Length of Visible Light 14h 36m
Length of Day
13h 36m
Waning Gibbous, 91% of the Moon is Illuminated
Aug 23
Waning Gibbous
Aug 28
Last Quarter
Sep 5
New
Sep 12
First Quarter
Sep 19
Full

Hourly Weather History & Observations

Time (EDT) Temp. Dew Point Humidity Pressure Visibility Wind Dir Wind Speed Gust Speed Precip Events Conditions
12:15 AM 59.9 °F 51.6 °F 74% 30.11 in 10.0 mi Calm Calm - N/A   Clear
12:36 AM 57.6 °F 52.0 °F 82% 30.11 in 10.0 mi Calm Calm - N/A   Clear
12:56 AM 56.3 °F 51.6 °F 84% 30.12 in 10.0 mi Calm Calm - N/A   Clear
1:15 AM 55.4 °F 52.0 °F 88% 30.12 in 10.0 mi Calm Calm - N/A   Clear
1:36 AM 56.7 °F 52.2 °F 85% 30.13 in 10.0 mi North 3.5 mph - N/A   Clear
1:56 AM 57.2 °F 50.5 °F 78% 30.13 in 10.0 mi Calm Calm - N/A   Clear
2:15 AM 57.7 °F 50.2 °F 76% 30.12 in 10.0 mi Calm Calm - N/A   Clear
2:36 AM 55.4 °F 50.5 °F 84% 30.12 in 10.0 mi Calm Calm - N/A   Clear
2:56 AM 54.0 °F 50.4 °F 88% 30.12 in 10.0 mi Calm Calm - N/A   Clear
3:15 AM 54.0 °F 50.2 °F 87% 30.12 in 10.0 mi Calm Calm - N/A   Clear
3:36 AM 52.5 °F 49.8 °F 91% 30.12 in 10.0 mi Calm Calm - N/A   Clear
3:56 AM 52.3 °F 50.2 °F 92% 30.12 in 10.0 mi Calm Calm - N/A   Clear
4:15 AM 51.4 °F 49.3 °F 92% 30.13 in 10.0 mi Calm Calm - N/A   Clear
4:36 AM 51.3 °F 49.1 °F 92% 30.13 in 10.0 mi Calm Calm - N/A   Clear
4:55 AM 51.3 °F 49.3 °F 93% 30.13 in 10.0 mi Calm Calm - N/A   Clear
5:15 AM 50.2 °F 48.4 °F 94% 30.13 in 10.0 mi Calm Calm - N/A   Clear
5:36 AM 50.9 °F 49.1 °F 94% 30.14 in 10.0 mi Calm Calm - N/A   Clear
5:55 AM 49.3 °F 47.5 °F 94% 30.14 in 10.0 mi Calm Calm - N/A   Clear
6:16 AM 49.6 °F 47.3 °F 92% 30.14 in 10.0 mi Calm Calm - N/A   Clear
6:36 AM 48.0 °F 45.9 °F 92% 30.15 in 10.0 mi Calm Calm - N/A   Clear
6:55 AM 49.6 °F 48.0 °F 94% 30.15 in 10.0 mi Calm Calm - N/A   Clear
7:16 AM 49.3 °F 47.3 °F 93% 30.16 in 10.0 mi Calm Calm - N/A   Clear
7:36 AM 49.8 °F 47.7 °F 92% 30.17 in 10.0 mi Calm Calm - N/A   Clear
7:55 AM 52.5 °F 50.0 °F 91% 30.17 in 10.0 mi Calm Calm - N/A   Clear
8:16 AM 56.3 °F 51.8 °F 85% 30.18 in 10.0 mi Calm Calm - N/A   Clear
8:36 AM 58.3 °F 51.4 °F 78% 30.18 in 10.0 mi NNW 3.5 mph - N/A   Clear
8:55 AM 60.1 °F 52.0 °F 75% 30.18 in 10.0 mi NNW 5.8 mph - N/A   Clear
9:16 AM 62.4 °F 53.2 °F 72% 30.19 in 10.0 mi Calm Calm - N/A   Clear
9:36 AM 64.2 °F 53.4 °F 68% 30.19 in 10.0 mi North 5.8 mph - N/A   Clear
9:55 AM 65.7 °F 54.1 °F 66% 30.19 in 10.0 mi NNE 4.6 mph - N/A   Clear
10:16 AM 67.1 °F 54.1 °F 63% 30.19 in 10.0 mi NNE 3.5 mph - N/A   Clear
10:36 AM 68.5 °F 54.3 °F 60% 30.20 in 10.0 mi NNW 3.5 mph - N/A   Clear
10:55 AM 69.6 °F 54.3 °F 58% 30.20 in 10.0 mi Calm Calm - N/A   Clear
11:16 AM 71.2 °F 54.5 °F 55% 30.20 in 10.0 mi North 3.5 mph - N/A   Clear
11:36 AM 72.7 °F 52.2 °F 48% 30.20 in 10.0 mi NNE 3.5 mph - N/A   Clear
11:55 AM 73.6 °F 52.9 °F 48% 30.20 in 10.0 mi Calm Calm - N/A   Clear
12:16 PM 75.4 °F 47.8 °F 38% 30.20 in 10.0 mi NNW 4.6 mph - N/A   Clear
12:36 PM 76.1 °F 43.0 °F 31% 30.19 in 10.0 mi North 3.5 mph - N/A   Clear
12:55 PM 76.8 °F 45.7 °F 33% 30.19 in 10.0 mi NE 5.8 mph - N/A   Clear
1:16 PM 76.8 °F 44.4 °F 32% 30.18 in 10.0 mi North 4.6 mph - N/A   Clear
1:36 PM 77.0 °F 45.3 °F 32% 30.19 in 10.0 mi Calm Calm - N/A   Clear
1:55 PM 77.5 °F 45.0 °F 31% 30.18 in 10.0 mi NE 5.8 mph - N/A   Clear
2:16 PM 78.3 °F 45.5 °F 31% 30.18 in 10.0 mi ESE 5.8 mph - N/A   Clear
2:36 PM 78.3 °F 45.9 °F 32% 30.18 in 10.0 mi NE 3.5 mph - N/A   Clear
2:55 PM 78.8 °F 46.8 °F 32% 30.18 in 10.0 mi NNE 4.6 mph - N/A   Clear
3:16 PM 79.2 °F 47.1 °F 32% 30.18 in 10.0 mi NNE 4.6 mph - N/A   Clear
3:36 PM 79.5 °F 47.5 °F 32% 30.17 in 10.0 mi NNW 3.5 mph - N/A   Clear
3:55 PM 79.0 °F 49.1 °F 35% 30.16 in 10.0 mi NNE 4.6 mph - N/A   Clear
4:16 PM 79.5 °F 48.2 °F 33% 30.16 in 10.0 mi SE 4.6 mph - N/A   Clear
4:35 PM 79.9 °F 48.4 °F 33% 30.16 in 10.0 mi East 6.9 mph - N/A   Mostly Cloudy
4:55 PM 77.4 °F 47.3 °F 35% 30.16 in 10.0 mi NE 3.5 mph - N/A   Scattered Clouds
5:16 PM 79.5 °F 49.1 °F 34% 30.16 in 10.0 mi East 5.8 mph 9.2 mph N/A   Clear
5:35 PM 79.0 °F 49.8 °F 36% 30.15 in 10.0 mi East 6.9 mph - N/A   Scattered Clouds
5:55 PM 78.6 °F 49.3 °F 36% 30.16 in 10.0 mi ESE 8.1 mph - N/A   Clear
6:16 PM 78.3 °F 49.3 °F 36% 30.16 in 10.0 mi ESE 5.8 mph - N/A   Clear
6:35 PM 77.7 °F 48.7 °F 36% 30.16 in 10.0 mi East 9.2 mph - N/A   Clear
6:55 PM 77.0 °F 48.4 °F 36% 30.16 in 10.0 mi ESE 9.2 mph - N/A   Clear
7:16 PM 75.9 °F 50.4 °F 41% 30.16 in 10.0 mi ESE 6.9 mph - N/A   Clear
7:35 PM 74.7 °F 51.4 °F 44% 30.16 in 10.0 mi East 8.1 mph - N/A   Clear
7:55 PM 73.0 °F 52.2 °F 48% 30.16 in 10.0 mi East 6.9 mph - N/A   Clear
8:16 PM 71.2 °F 52.7 °F 52% 30.17 in 10.0 mi East 6.9 mph - N/A   Clear
8:35 PM 68.5 °F 53.1 °F 58% 30.18 in 10.0 mi East 6.9 mph - N/A   Clear
8:56 PM 65.8 °F 53.1 °F 63% 30.18 in 10.0 mi ENE 4.6 mph - N/A   Clear
9:16 PM 64.9 °F 54.5 °F 69% 30.18 in 10.0 mi ENE 5.8 mph - N/A   Clear
9:35 PM 63.9 °F 54.5 °F 72% 30.20 in 10.0 mi ENE 3.5 mph - N/A   Clear
9:56 PM 62.8 °F 54.5 °F 74% 30.20 in 10.0 mi East 3.5 mph - N/A   Clear
10:16 PM 61.7 °F 54.5 °F 77% 30.20 in 10.0 mi Calm Calm - N/A   Clear
10:35 PM 61.0 °F 54.5 °F 79% 30.21 in 10.0 mi Calm Calm - N/A   Clear
10:56 PM 60.1 °F 54.7 °F 82% 30.21 in 10.0 mi Calm Calm - N/A   Clear
11:16 PM 59.9 °F 55.4 °F 85% 30.21 in 10.0 mi Calm Calm - N/A   Clear
11:35 PM 59.0 °F 55.0 °F 87% 30.21 in 10.0 mi Calm Calm - N/A   Clear
11:56 PM 57.4 °F 54.7 °F 91% 30.22 in 10.0 mi Calm Calm - N/A   Clear